カタログに戻る

STARLINK-31904

運用中通信VLEO
NORAD 59657·PAYLOAD·🇺🇸 United States

打ち上げ May 6, 2024 から Cape Canaveral Space Force Station

Loading…

次のパス (今後24時間)

TLE

最新Source: CelesTrak SupGP

元期: Sep 14, 2026, 22:07 UTC

1 59657C 24084D   26257.92201389  .00058119  00000+0  21052-2 0  2578
2 59657  43.0009  53.1856 0001441 272.3141  63.6397 15.27547936    12

AllMySatでSTARLINK-31904をリアルタイム追跡

Download on the App Store